Location: Unspecified
(0.0000°N, 0.0000°E)
Time: 01:50:39
(UTC+02:00)

Cosmos 1263 Rocket - Visible Passes

Search period start: 23 July 2014 00:00
Search period end: 02 August 2014 00:00
Orbit: 322 x 602 km, 82.9° (Epoch: 21 July)

Date Brightness Start Highest point End Pass type
(mag) Time Alt. Az. Time Alt. Az. Time Alt. Az.
27 Jul 5.2 22:35:06 10° NNW 22:35:59 15° NW 22:35:59 15° NW visible
28 Jul 4.0 22:02:57 10° N 22:05:04 29° N 22:05:04 29° N visible
29 Jul 3.4 21:31:25 10° NNE 21:34:10 32° NE 21:34:10 32° NE visible
30 Jul 3.9 21:00:41 10° NE 21:03:17 18° E 21:03:17 18° E visible
30 Jul 5.2 22:35:19 10° NW 22:37:14 15° W 22:37:14 15° W visible
31 Jul 3.8 22:02:09 10° NNW 22:05:57 34° W 22:06:22 33° WSW visible
01 Aug 2.2 21:29:56 10° N 21:34:05 87° W 21:35:31 39° S visible
